Canadian, TX

1:51 PM CDT on May 29, 2017 (GMT -0500)
Hemphill County

Weather History for KHHF - January, 2014

Change the Weather History Date:

Friday, January 24, 2014

  Actual Average (KPPA) Record (KPPA)
Temperature  
Mean Temperature 31 °F -  
Max Temperature 55 °F 51 °F 78 °F (1972)
Min Temperature 7 °F 23 °F 2 °F (2014)
Degree Days  
Heating Degree Days 34    
Moisture  
Dew Point 12 °F    
Average Humidity 50    
Maximum Humidity 81    
Minimum Humidity 21    
Precipitation  
Precipitation 0.00 in - - ()
Sea Level Pressure  
Sea Level Pressure 30.32 in    
Wind  
Wind Speed 6 mph (WSW)    
Max Wind Speed 23 mph    
Max Gust Speed 30 mph    
Visibility 10 miles    
Events      
Averages and records for this station are not official NWS values.
T = Trace of Precipitation, MM = Missing Value Source: NWS Daily Summary

Daily Weather History Graph

Daily Weather History Graph

Search for Another Location

Airport or City:

Trip Planner

Search our weather history database for the weather conditions in past years. The results will help you decide how hot, cold, wet, or windy it might be!

Date:

Astronomy

Jan. 24, 2014 Rise Set
Actual Time 7:47 AM CST 6:00 PM CST
Civil Twilight 7:20 AM CST 6:27 PM CST
Nautical Twilight 6:49 AM CST 6:58 PM CST
Astronomical Twilight 6:18 AM CST 7:29 PM CST
Moon 1:19 AM CST (1/24) 12:18 PM CST (1/24)
Length of Visible Light 11h 07m
Length of Day
10h 13m
Last Quarter, 44% of the Moon is Illuminated
Jan 24
Last Quarter
Jan 30
New
Feb 6
First Quarter
Feb 14
Full
Feb 22
Last Quarter

Hourly Weather History & Observations

Time (CST) Temp. Windchill Dew Point Humidity Pressure Visibility Wind Dir Wind Speed Gust Speed Precip Events Conditions
12:15 AM 10.0 °F 0.4 °F 1.8 °F 69% 30.68 in 10.0 mi SW 5.8 mph - N/A   Clear
12:35 AM 9.7 °F -1.3 °F 2.1 °F 71% 30.67 in 10.0 mi SW 6.9 mph - N/A   Clear
12:55 AM 10.4 °F - 3.0 °F 72% 30.67 in 10.0 mi Calm Calm - N/A   Clear
1:15 AM 9.1 °F 2.6 °F 2.3 °F 74% 30.67 in 10.0 mi SW 3.5 mph - N/A   Clear
1:35 AM 8.6 °F 2.0 °F 2.5 °F 76% 30.65 in 10.0 mi SW 3.5 mph - N/A   Clear
1:55 AM 9.0 °F 0.6 °F 2.8 °F 76% 30.64 in 10.0 mi SW 4.6 mph - N/A   Clear
2:15 AM 7.7 °F -0.9 °F 2.3 °F 79% 30.63 in 10.0 mi WSW 4.6 mph - N/A   Clear
2:35 AM 7.7 °F - 2.3 °F 79% 30.62 in 10.0 mi Calm Calm - N/A   Clear
2:55 AM 8.1 °F 1.4 °F 2.7 °F 79% 30.61 in 10.0 mi WSW 3.5 mph - N/A   Clear
3:15 AM 7.9 °F -3.5 °F 3.0 °F 81% 30.59 in 10.0 mi SW 6.9 mph - N/A   Clear
3:35 AM 10.9 °F -0.8 °F 4.6 °F 76% 30.57 in 10.0 mi SW 8.1 mph - N/A   Clear
3:55 AM 10.6 °F 2.5 °F 4.5 °F 76% 30.56 in 10.0 mi SW 4.6 mph - N/A   Clear
4:15 AM 11.3 °F -1.3 °F 4.8 °F 75% 30.55 in 10.0 mi SSW 9.2 mph - N/A   Clear
4:35 AM 11.7 °F 1.1 °F 4.8 °F 74% 30.53 in 10.0 mi SW 6.9 mph - N/A   Clear
4:55 AM 11.3 °F 0.7 °F 4.8 °F 75% 30.51 in 10.0 mi SW 6.9 mph - N/A   Clear
5:15 AM 12.7 °F 1.4 °F 5.7 °F 74% 30.50 in 10.0 mi SW 8.1 mph - N/A   Clear
5:35 AM 13.1 °F 0.9 °F 5.9 °F 73% 30.48 in 10.0 mi SW 9.2 mph - N/A   Clear
5:55 AM 14.2 °F 3.1 °F 6.8 °F 73% 30.46 in 10.0 mi SW 8.1 mph - N/A   Clear
6:15 AM 13.8 °F 4.9 °F 7.0 °F 74% 30.45 in 10.0 mi SW 5.8 mph - N/A   Clear
6:35 AM 12.4 °F - 6.1 °F 76% 30.45 in 10.0 mi Calm Calm - N/A   Clear
6:55 AM 12.6 °F - 6.8 °F 78% 30.45 in 10.0 mi Calm Calm - N/A   Clear
7:15 AM 13.1 °F - 7.2 °F 77% 30.44 in 10.0 mi Calm Calm - N/A   Clear
7:35 AM 10.6 °F - 5.4 °F 79% 30.43 in 10.0 mi Calm Calm - N/A   Clear
7:55 AM 10.2 °F - 5.0 °F 79% 30.42 in 10.0 mi Calm Calm - N/A   Clear
8:15 AM 9.5 °F - 4.6 °F 81% 30.41 in 10.0 mi Calm Calm - N/A   Clear
8:35 AM 10.2 °F 2.0 °F 5.4 °F 81% 30.41 in 10.0 mi NE 4.6 mph - N/A   Clear
8:55 AM 11.7 °F - 6.1 °F 78% 30.41 in 10.0 mi Calm Calm - N/A   Clear
9:15 AM 14.4 °F - 7.9 °F 75% 30.40 in 10.0 mi Calm Calm - N/A   Clear
9:35 AM 28.9 °F 18.6 °F 16.0 °F 58% 30.39 in 10.0 mi West 12.7 mph 20.7 mph N/A   Clear
9:55 AM 32.9 °F 23.2 °F 15.3 °F 48% 30.36 in 10.0 mi WSW 13.8 mph 18.4 mph N/A   Clear
10:15 AM 34.9 °F 23.9 °F 15.4 °F 45% 30.35 in 10.0 mi WSW 19.6 mph 25.3 mph N/A   Clear
10:35 AM 36.5 °F 26.0 °F 15.6 °F 43% 30.35 in 10.0 mi WSW 19.6 mph 29.9 mph N/A   Clear
10:55 AM 38.1 °F 27.3 °F 16.2 °F 41% 30.35 in 10.0 mi WSW 23.0 mph 26.5 mph N/A   Clear
11:15 AM 39.7 °F 31.2 °F 16.7 °F 39% 30.34 in 10.0 mi WSW 16.1 mph 21.9 mph N/A   Clear
11:35 AM 41.0 °F 32.5 °F 16.7 °F 37% 30.33 in 10.0 mi West 17.3 mph 24.2 mph N/A   Clear
11:55 AM 42.8 °F 36.2 °F 17.2 °F 36% 30.31 in 10.0 mi WSW 12.7 mph 19.6 mph N/A   Clear
12:15 PM 43.9 °F 36.5 °F 17.1 °F 34% 30.31 in 10.0 mi WSW 16.1 mph 20.7 mph N/A   Clear
12:35 PM 44.8 °F 38.3 °F 17.1 °F 33% 30.28 in 10.0 mi West 13.8 mph 18.4 mph N/A   Clear
12:55 PM 45.7 °F 40.2 °F 17.6 °F 33% 30.26 in 10.0 mi WSW 11.5 mph 17.3 mph N/A   Clear
1:15 PM 47.1 °F - 17.6 °F 31% 30.25 in 10.0 mi West 10.4 mph - N/A   Clear
1:35 PM 48.6 °F - 17.8 °F 29% 30.23 in 10.0 mi West 16.1 mph 19.6 mph N/A   Clear
1:55 PM 50.0 °F - 16.7 °F 27% 30.21 in 10.0 mi WSW 12.7 mph - N/A   Clear
2:15 PM 51.8 °F - 16.9 °F 25% 30.20 in 10.0 mi WNW 11.5 mph - N/A   Clear
2:35 PM 52.0 °F - 17.2 °F 25% 30.19 in 10.0 mi West 8.1 mph - N/A   Clear
2:55 PM 52.9 °F - 16.5 °F 24% 30.18 in 10.0 mi West 8.1 mph - N/A   Clear
3:15 PM 54.5 °F - 16.0 °F 22% 30.18 in 10.0 mi WNW 8.1 mph - N/A   Clear
3:35 PM 54.9 °F - 16.5 °F 22% 30.16 in 10.0 mi West 6.9 mph - N/A   Clear
3:55 PM 55.6 °F - 16.2 °F 21% 30.16 in 10.0 mi West 9.2 mph - N/A   Clear
4:15 PM 55.9 °F - 15.8 °F 21% 30.15 in 10.0 mi West 9.2 mph - N/A   Clear
4:35 PM 55.8 °F - 16.7 °F 22% 30.15 in 10.0 mi West 8.1 mph - N/A   Clear
4:55 PM 55.6 °F - 16.3 °F 21% 30.14 in 10.0 mi West 9.2 mph - N/A   Clear
5:15 PM 54.9 °F - 16.9 °F 22% 30.14 in 10.0 mi WSW 8.1 mph - N/A   Clear
5:35 PM 52.9 °F - 18.3 °F 26% 30.13 in 10.0 mi WSW 6.9 mph - N/A   Clear
5:55 PM 49.1 °F - 17.6 °F 29% 30.14 in 10.0 mi SW 5.8 mph - N/A   Clear
6:15 PM 45.7 °F 42.7 °F 17.4 °F 32% 30.14 in 10.0 mi SSW 5.8 mph - N/A   Clear
6:35 PM 45.5 °F 42.5 °F 17.2 °F 32% 30.15 in 10.0 mi SW 5.8 mph - N/A   Clear
6:55 PM 42.6 °F 39.9 °F 16.9 °F 35% 30.14 in 10.0 mi SW 4.6 mph - N/A   Clear
7:15 PM 41.5 °F 37.1 °F 17.6 °F 38% 30.14 in 10.0 mi SW 6.9 mph - N/A   Clear
7:35 PM 39.7 °F 34.9 °F 17.6 °F 41% 30.14 in 10.0 mi SW 6.9 mph - N/A   Clear
7:55 PM 38.7 °F 34.3 °F 17.6 °F 43% 30.13 in 10.0 mi SW 5.8 mph - N/A   Clear
8:15 PM 40.8 °F 37.8 °F 17.6 °F 39% 30.13 in 10.0 mi SW 4.6 mph - N/A   Clear
8:35 PM 41.9 °F 39.0 °F 17.6 °F 38% 30.13 in 10.0 mi South 4.6 mph - N/A   Clear
8:55 PM 42.6 °F 39.9 °F 18.0 °F 37% 30.12 in 10.0 mi South 4.6 mph - N/A   Clear
9:15 PM 41.2 °F 36.0 °F 18.0 °F 39% 30.12 in 10.0 mi SW 8.1 mph - N/A   Clear
9:35 PM 41.7 °F - 18.0 °F 38% 30.12 in 10.0 mi Calm Calm - N/A   Clear
9:55 PM 43.7 °F 42.1 °F 18.0 °F 36% 30.12 in 10.0 mi West 3.5 mph - N/A   Clear
10:15 PM 40.8 °F - 17.1 °F 38% 30.12 in 10.0 mi Calm Calm - N/A   Clear
10:35 PM 44.8 °F - 16.7 °F 32% 30.12 in 10.0 mi Calm Calm - N/A   Clear
10:55 PM 43.7 °F - 15.8 °F 33% 30.12 in 10.0 mi Calm Calm - N/A   Clear
11:15 PM 48.2 °F - 16.0 °F 28% 30.12 in 10.0 mi West 8.1 mph 16.1 mph N/A   Clear
11:35 PM 48.7 °F - 15.3 °F 26% 30.12 in 10.0 mi West 11.5 mph 18.4 mph N/A   Clear
11:55 PM 48.7 °F - 14.9 °F 26% 30.12 in 10.0 mi WNW 6.9 mph 16.1 mph N/A   Clear